Year,Month,Day,Hour,Minute,Value (Times are PST for temperature in C)
2018,08,08,00,00,20.20
2018,08,08,00,01,20.20
2018,08,08,00,02,20.20
2018,08,08,00,03,20.20
2018,08,08,00,04,20.10
2018,08,08,00,05,20.10
2018,08,08,00,06,20.10
2018,08,08,00,07,20.10
2018,08,08,00,08,20.10
2018,08,08,00,09,20.00
2018,08,08,00,10,19.90
2018,08,08,00,11,19.90
2018,08,08,00,12,19.90
2018,08,08,00,13,19.90
2018,08,08,00,14,19.90
2018,08,08,00,15,19.90
2018,08,08,00,16,19.90
2018,08,08,00,17,19.90
2018,08,08,00,18,19.90
2018,08,08,00,19,19.90
2018,08,08,00,20,19.90
2018,08,08,00,21,19.90
2018,08,08,00,22,19.90
2018,08,08,00,23,19.90
2018,08,08,00,24,19.90
2018,08,08,00,25,19.90
2018,08,08,00,26,19.90
2018,08,08,00,27,19.90
2018,08,08,00,28,20.00
2018,08,08,00,29,20.10
2018,08,08,00,30,20.10
2018,08,08,00,31,20.10
2018,08,08,00,32,20.10
2018,08,08,00,33,20.20
2018,08,08,00,34,20.20
2018,08,08,00,35,20.30
2018,08,08,00,36,20.40
2018,08,08,00,37,20.50
2018,08,08,00,38,20.60
2018,08,08,00,39,20.70
2018,08,08,00,40,20.80
2018,08,08,00,41,20.90
2018,08,08,00,42,21.00
2018,08,08,00,43,21.00
2018,08,08,00,44,21.10
2018,08,08,00,45,21.20
2018,08,08,00,46,21.30
2018,08,08,00,47,21.30
2018,08,08,00,48,21.30
2018,08,08,00,49,21.30
2018,08,08,00,50,21.30
2018,08,08,00,51,21.30
2018,08,08,00,52,21.30
2018,08,08,00,53,21.30
2018,08,08,00,54,21.30
2018,08,08,00,55,21.30
2018,08,08,00,56,21.30
2018,08,08,00,57,21.30
2018,08,08,00,58,21.30
2018,08,08,00,59,21.20
2018,08,08,01,00,21.20
2018,08,08,01,01,21.10
2018,08,08,01,02,21.00
2018,08,08,01,03,21.00
2018,08,08,01,04,20.90
2018,08,08,01,05,20.90
2018,08,08,01,06,20.80
2018,08,08,01,07,20.80
2018,08,08,01,08,20.80
2018,08,08,01,09,20.80
2018,08,08,01,10,20.70
2018,08,08,01,11,20.70
2018,08,08,01,12,20.70
2018,08,08,01,13,20.60
2018,08,08,01,14,20.60
2018,08,08,01,15,20.60
2018,08,08,01,16,20.60
2018,08,08,01,17,20.60
2018,08,08,01,18,20.50
2018,08,08,01,19,20.50
2018,08,08,01,20,20.50
2018,08,08,01,21,20.50
2018,08,08,01,22,20.50
2018,08,08,01,23,20.40
2018,08,08,01,24,20.40
2018,08,08,01,25,20.40
2018,08,08,01,26,20.40
2018,08,08,01,27,20.40
2018,08,08,01,28,20.40
2018,08,08,01,29,20.40
2018,08,08,01,30,20.40
2018,08,08,01,31,20.40
2018,08,08,01,32,20.40
2018,08,08,01,33,20.40
2018,08,08,01,34,20.40
2018,08,08,01,35,20.50
2018,08,08,01,36,20.50
2018,08,08,01,37,20.50
2018,08,08,01,38,20.60
2018,08,08,01,39,20.70
2018,08,08,01,40,20.70
2018,08,08,01,41,20.70
2018,08,08,01,42,20.80
2018,08,08,01,43,20.80
2018,08,08,01,44,20.90
2018,08,08,01,45,20.90
2018,08,08,01,46,21.00
2018,08,08,01,47,21.00
2018,08,08,01,48,21.10
2018,08,08,01,49,21.10
2018,08,08,01,50,21.20
2018,08,08,01,51,21.20
2018,08,08,01,52,21.20
2018,08,08,01,53,21.30
2018,08,08,01,54,21.30
2018,08,08,01,55,21.20
2018,08,08,01,56,21.10
2018,08,08,01,57,21.00
2018,08,08,01,58,20.80
2018,08,08,01,59,20.70
2018,08,08,02,00,20.60
2018,08,08,02,01,20.50
2018,08,08,02,02,20.30
2018,08,08,02,03,20.10
2018,08,08,02,04,20.00
2018,08,08,02,05,19.90
2018,08,08,02,06,19.80
2018,08,08,02,07,19.70
2018,08,08,02,08,19.60
2018,08,08,02,09,19.40
2018,08,08,02,10,19.20
2018,08,08,02,11,19.00
2018,08,08,02,12,18.70
2018,08,08,02,13,18.50
2018,08,08,02,14,18.30
2018,08,08,02,15,18.20
2018,08,08,02,16,18.00
2018,08,08,02,17,17.90
2018,08,08,02,18,17.80
2018,08,08,02,19,17.70
2018,08,08,02,20,17.60
2018,08,08,02,21,17.50
2018,08,08,02,22,17.40
2018,08,08,02,23,17.30
2018,08,08,02,24,17.30
2018,08,08,02,25,17.20
2018,08,08,02,26,17.10
2018,08,08,02,27,17.00
2018,08,08,02,28,17.00
2018,08,08,02,29,17.00
2018,08,08,02,30,16.90
2018,08,08,02,31,16.90
2018,08,08,02,32,16.80
2018,08,08,02,33,16.80
2018,08,08,02,34,16.70
2018,08,08,02,35,16.70
2018,08,08,02,36,16.70
2018,08,08,02,37,16.70
2018,08,08,02,38,16.70
2018,08,08,02,39,16.60
2018,08,08,02,40,16.60
2018,08,08,02,41,16.60
2018,08,08,02,42,16.60
2018,08,08,02,43,16.60
2018,08,08,02,44,16.50
2018,08,08,02,45,16.40
2018,08,08,02,46,16.40
2018,08,08,02,47,16.40
2018,08,08,02,48,16.40
2018,08,08,02,49,16.40
2018,08,08,02,50,16.50
2018,08,08,02,51,16.60
2018,08,08,02,52,16.60
2018,08,08,02,53,16.60
2018,08,08,02,54,16.60
2018,08,08,02,55,16.70
2018,08,08,02,56,16.70
2018,08,08,02,57,16.70
2018,08,08,02,58,16.80
2018,08,08,02,59,16.90
2018,08,08,03,00,16.90
2018,08,08,03,01,16.90
2018,08,08,03,02,17.00
2018,08,08,03,03,17.00
2018,08,08,03,04,17.10
2018,08,08,03,05,17.10
2018,08,08,03,06,17.20
2018,08,08,03,07,17.20
2018,08,08,03,08,17.30
2018,08,08,03,09,17.30
2018,08,08,03,10,17.30
2018,08,08,03,11,17.30
2018,08,08,03,12,17.30
2018,08,08,03,13,17.40
2018,08,08,03,14,17.40
2018,08,08,03,15,17.40
2018,08,08,03,16,17.40
2018,08,08,03,17,17.50
2018,08,08,03,18,17.50
2018,08,08,03,19,17.50
2018,08,08,03,20,17.50
2018,08,08,03,21,17.50
2018,08,08,03,22,17.50
2018,08,08,03,23,17.50
2018,08,08,03,24,17.50
2018,08,08,03,25,17.50
2018,08,08,03,26,17.50
2018,08,08,03,27,17.50
2018,08,08,03,28,17.50
2018,08,08,03,29,17.50
2018,08,08,03,30,17.50
2018,08,08,03,31,17.50
2018,08,08,03,32,17.40
2018,08,08,03,33,17.40
2018,08,08,03,34,17.30
2018,08,08,03,35,17.30
2018,08,08,03,36,17.30
2018,08,08,03,37,17.30
2018,08,08,03,38,17.30
2018,08,08,03,39,17.30
2018,08,08,03,40,17.30
2018,08,08,03,41,17.30
2018,08,08,03,42,17.30
2018,08,08,03,43,17.30
2018,08,08,03,44,17.30
2018,08,08,03,45,17.30
2018,08,08,03,46,17.30
2018,08,08,03,47,17.30
2018,08,08,03,48,17.30
2018,08,08,03,49,17.30
2018,08,08,03,50,17.30
2018,08,08,03,51,17.30
2018,08,08,03,52,17.20
2018,08,08,03,53,17.20
2018,08,08,03,54,17.20
2018,08,08,03,55,17.10
2018,08,08,03,56,17.10
2018,08,08,03,57,17.10
2018,08,08,03,58,17.00
2018,08,08,03,59,17.00
2018,08,08,04,00,16.90
2018,08,08,04,01,16.90
2018,08,08,04,02,16.80
2018,08,08,04,03,16.70
2018,08,08,04,04,16.70
2018,08,08,04,05,16.70
2018,08,08,04,06,16.60
2018,08,08,04,07,16.60
2018,08,08,04,08,16.60
2018,08,08,04,09,16.60
2018,08,08,04,10,16.60
2018,08,08,04,11,16.60
2018,08,08,04,12,16.60
2018,08,08,04,13,16.70
2018,08,08,04,14,16.70
2018,08,08,04,15,16.70
2018,08,08,04,16,16.70
2018,08,08,04,17,16.80
2018,08,08,04,18,16.80
2018,08,08,04,19,16.90
2018,08,08,04,20,16.90
2018,08,08,04,21,17.00
2018,08,08,04,22,17.00
2018,08,08,04,23,17.10
2018,08,08,04,24,17.20
2018,08,08,04,25,17.20
2018,08,08,04,26,17.10
2018,08,08,04,27,17.10
2018,08,08,04,28,17.10
2018,08,08,04,29,17.00
2018,08,08,04,30,17.00
2018,08,08,04,31,16.90
2018,08,08,04,32,16.90
2018,08,08,04,33,16.90
2018,08,08,04,34,16.90
2018,08,08,04,35,16.90
2018,08,08,04,36,16.80
2018,08,08,04,37,16.70
2018,08,08,04,38,16.60
2018,08,08,04,39,16.50
2018,08,08,04,40,16.40
2018,08,08,04,41,16.40
2018,08,08,04,42,16.30
2018,08,08,04,43,16.30
2018,08,08,04,44,16.20
2018,08,08,04,45,16.20
2018,08,08,04,46,16.20
2018,08,08,04,47,16.20
2018,08,08,04,48,16.20
2018,08,08,04,49,16.20
2018,08,08,04,50,16.20
2018,08,08,04,51,16.10
2018,08,08,04,52,16.10
2018,08,08,04,53,16.10
2018,08,08,04,54,16.10
2018,08,08,04,55,15.90
2018,08,08,04,56,15.90
2018,08,08,04,57,15.90
2018,08,08,04,58,15.80
2018,08,08,04,59,15.80
2018,08,08,05,00,15.80
2018,08,08,05,01,15.70
2018,08,08,05,02,15.70
2018,08,08,05,03,15.70
2018,08,08,05,04,15.60
2018,08,08,05,05,15.60
2018,08,08,05,06,15.50
2018,08,08,05,07,15.50
2018,08,08,05,08,15.50
2018,08,08,05,09,15.40
2018,08,08,05,10,15.40
2018,08,08,05,11,15.40
2018,08,08,05,12,15.40
2018,08,08,05,13,15.40
2018,08,08,05,14,15.30
2018,08,08,05,15,15.30
2018,08,08,05,16,15.30
2018,08,08,05,17,15.30
2018,08,08,05,18,15.30
2018,08,08,05,19,15.30
2018,08,08,05,20,15.30
2018,08,08,05,21,15.30
2018,08,08,05,22,15.30
2018,08,08,05,23,15.30
2018,08,08,05,24,15.30
2018,08,08,05,25,15.30
2018,08,08,05,26,15.30
2018,08,08,05,27,15.30
2018,08,08,05,28,15.30
2018,08,08,05,29,15.30
2018,08,08,05,30,15.30
2018,08,08,05,31,15.30
2018,08,08,05,32,15.30
2018,08,08,05,33,15.30
2018,08,08,05,34,15.20
2018,08,08,05,35,15.20
2018,08,08,05,36,15.20
2018,08,08,05,37,15.20
2018,08,08,05,38,15.20
2018,08,08,05,39,15.20
2018,08,08,05,40,15.20
2018,08,08,05,41,15.20
2018,08,08,05,42,15.10
2018,08,08,05,43,15.10
2018,08,08,05,44,15.10
2018,08,08,05,45,15.10
2018,08,08,05,46,15.10
2018,08,08,05,47,15.20
2018,08,08,05,48,15.20
2018,08,08,05,49,15.20
2018,08,08,05,50,15.20
2018,08,08,05,51,15.20
2018,08,08,05,52,15.20
2018,08,08,05,53,15.20
2018,08,08,05,54,15.30
2018,08,08,05,55,15.20
2018,08,08,05,56,15.20
2018,08,08,05,57,15.20
2018,08,08,05,58,15.10
2018,08,08,05,59,15.10
2018,08,08,06,00,15.10
2018,08,08,06,01,15.10
2018,08,08,06,02,15.10
2018,08,08,06,03,15.10
2018,08,08,06,04,15.10
2018,08,08,06,05,15.10
2018,08,08,06,06,15.20
2018,08,08,06,07,15.20
2018,08,08,06,08,15.20
2018,08,08,06,09,15.20
2018,08,08,06,10,15.30
2018,08,08,06,11,15.30
2018,08,08,06,12,15.30
2018,08,08,06,13,15.40
2018,08,08,06,14,15.40
2018,08,08,06,15,15.50
2018,08,08,06,16,15.50
2018,08,08,06,17,15.60
2018,08,08,06,18,15.70
2018,08,08,06,19,15.70
2018,08,08,06,20,15.80
2018,08,08,06,21,15.80
2018,08,08,06,22,15.90
2018,08,08,06,23,15.90
2018,08,08,06,24,16.00
2018,08,08,06,25,16.10
2018,08,08,06,26,16.10
2018,08,08,06,27,16.20
2018,08,08,06,28,16.30
2018,08,08,06,29,16.40
2018,08,08,06,30,16.50
2018,08,08,06,31,16.60
2018,08,08,06,32,16.70
2018,08,08,06,33,16.90
2018,08,08,06,34,16.90
2018,08,08,06,35,17.00
2018,08,08,06,36,17.10
2018,08,08,06,37,17.20
2018,08,08,06,38,17.30
2018,08,08,06,39,17.30
2018,08,08,06,40,17.40
2018,08,08,06,41,17.50
2018,08,08,06,42,17.50
2018,08,08,06,43,17.60
2018,08,08,06,44,17.60
2018,08,08,06,45,17.70
2018,08,08,06,46,17.70
2018,08,08,06,47,17.70
2018,08,08,06,48,17.80
2018,08,08,06,49,17.80
2018,08,08,06,50,17.80
2018,08,08,06,51,17.80
2018,08,08,06,52,17.90
2018,08,08,06,53,17.90
2018,08,08,06,54,17.90
2018,08,08,06,55,17.90
2018,08,08,06,56,17.90
2018,08,08,06,57,17.90
2018,08,08,06,58,17.90
2018,08,08,06,59,17.90
2018,08,08,07,00,17.90
2018,08,08,07,01,17.90
2018,08,08,07,02,17.90
2018,08,08,07,03,18.10
2018,08,08,07,04,18.10
2018,08,08,07,05,18.20
2018,08,08,07,06,18.20
2018,08,08,07,07,18.30
2018,08,08,07,08,18.40
2018,08,08,07,09,18.50
2018,08,08,07,10,18.50
2018,08,08,07,11,18.60
2018,08,08,07,12,18.70
2018,08,08,07,13,18.80
2018,08,08,07,14,18.90
2018,08,08,07,15,18.90
2018,08,08,07,16,18.90
2018,08,08,07,17,18.90
2018,08,08,07,18,18.90
2018,08,08,07,19,19.00
2018,08,08,07,20,19.10
2018,08,08,07,21,19.10
2018,08,08,07,22,19.10
2018,08,08,07,23,19.10
2018,08,08,07,24,19.10
2018,08,08,07,25,19.20
2018,08,08,07,26,19.30
2018,08,08,07,27,19.30
2018,08,08,07,28,19.40
2018,08,08,07,29,19.40
2018,08,08,07,30,19.40
2018,08,08,07,31,19.40
2018,08,08,07,32,19.50
2018,08,08,07,33,19.50
2018,08,08,07,34,19.50
2018,08,08,07,35,19.50
2018,08,08,07,36,19.50
2018,08,08,07,37,19.60
2018,08,08,07,38,19.60
2018,08,08,07,39,19.70
2018,08,08,07,40,19.80
2018,08,08,07,41,19.90
2018,08,08,07,42,20.00
2018,08,08,07,43,20.10
2018,08,08,07,44,20.10
2018,08,08,07,45,20.20
2018,08,08,07,46,20.30
2018,08,08,07,47,20.30
2018,08,08,07,48,20.40
2018,08,08,07,49,20.40
2018,08,08,07,50,20.50
2018,08,08,07,51,20.50
2018,08,08,07,52,20.50
2018,08,08,07,53,20.40
2018,08,08,07,54,20.40
2018,08,08,07,55,20.40
2018,08,08,07,56,20.30
2018,08,08,07,57,20.30
2018,08,08,07,58,20.20
2018,08,08,07,59,20.20
2018,08,08,08,00,20.20
2018,08,08,08,01,20.20
2018,08,08,08,02,20.30
2018,08,08,08,03,20.30
2018,08,08,08,04,20.40
2018,08,08,08,05,20.40
2018,08,08,08,06,20.40
2018,08,08,08,07,20.40
2018,08,08,08,08,20.40
2018,08,08,08,09,20.40
2018,08,08,08,10,20.40
2018,08,08,08,11,20.50
2018,08,08,08,12,20.50
2018,08,08,08,13,20.60
2018,08,08,08,14,20.60
2018,08,08,08,15,20.70
2018,08,08,08,16,20.80
2018,08,08,08,17,20.80
2018,08,08,08,18,20.90
2018,08,08,08,19,21.00
2018,08,08,08,20,21.10
2018,08,08,08,21,21.10
2018,08,08,08,22,21.20
2018,08,08,08,23,21.30
2018,08,08,08,24,21.30
2018,08,08,08,25,21.40
2018,08,08,08,26,21.50
2018,08,08,08,27,21.60
2018,08,08,08,28,21.60
2018,08,08,08,29,21.60
2018,08,08,08,30,21.70
2018,08,08,08,31,21.80
2018,08,08,08,32,21.90
2018,08,08,08,33,21.90
2018,08,08,08,34,22.00
2018,08,08,08,35,22.00
2018,08,08,08,36,22.10
2018,08,08,08,37,22.10
2018,08,08,08,38,22.20
2018,08,08,08,39,22.30
2018,08,08,08,40,22.30
2018,08,08,08,41,22.40
2018,08,08,08,42,22.50
2018,08,08,08,43,22.50
2018,08,08,08,44,22.50
2018,08,08,08,45,22.50
2018,08,08,08,46,22.50
2018,08,08,08,47,22.50
2018,08,08,08,48,22.40
2018,08,08,08,49,22.30
2018,08,08,08,50,22.30
2018,08,08,08,51,22.20
2018,08,08,08,52,22.20
2018,08,08,08,53,22.20
2018,08,08,08,54,22.20
2018,08,08,08,55,22.20
2018,08,08,08,56,22.20
2018,08,08,08,57,22.30
2018,08,08,08,58,22.30
2018,08,08,08,59,22.30
2018,08,08,09,00,22.30
2018,08,08,09,01,22.40
2018,08,08,09,02,22.40
2018,08,08,09,03,22.40
2018,08,08,09,04,22.50
2018,08,08,09,05,22.60
2018,08,08,09,06,22.60
2018,08,08,09,07,22.60
2018,08,08,09,08,22.60
2018,08,08,09,09,22.50
2018,08,08,09,10,22.50
2018,08,08,09,11,22.50
2018,08,08,09,12,22.50
2018,08,08,09,13,22.50
2018,08,08,09,14,22.50
2018,08,08,09,15,22.50
2018,08,08,09,16,22.50
2018,08,08,09,17,22.50
2018,08,08,09,18,22.40
2018,08,08,09,19,22.40
2018,08,08,09,20,22.40
2018,08,08,09,21,22.40
2018,08,08,09,22,22.40
2018,08,08,09,23,22.40
2018,08,08,09,24,22.40
2018,08,08,09,25,22.50
2018,08,08,09,26,22.60
2018,08,08,09,27,22.60
2018,08,08,09,28,22.70
2018,08,08,09,29,22.80
2018,08,08,09,30,22.80
2018,08,08,09,31,22.90
2018,08,08,09,32,22.90
2018,08,08,09,33,23.00
2018,08,08,09,34,23.10
2018,08,08,09,35,23.20
2018,08,08,09,36,23.30
2018,08,08,09,37,23.40
2018,08,08,09,38,23.50
2018,08,08,09,39,23.60
2018,08,08,09,40,23.70
2018,08,08,09,41,23.70
2018,08,08,09,42,23.70
2018,08,08,09,43,23.70
2018,08,08,09,44,23.70
2018,08,08,09,45,23.80
2018,08,08,09,46,23.80
2018,08,08,09,47,23.80
2018,08,08,09,48,23.90
2018,08,08,09,49,23.90
2018,08,08,09,50,23.90
2018,08,08,09,51,23.90
2018,08,08,09,52,23.80
2018,08,08,09,53,23.80
2018,08,08,09,54,23.80
2018,08,08,09,55,23.80
2018,08,08,09,56,23.80
2018,08,08,09,57,23.90
2018,08,08,09,58,23.90
2018,08,08,09,59,23.90
2018,08,08,10,00,23.90
2018,08,08,10,01,23.80
2018,08,08,10,02,23.80
2018,08,08,10,03,23.90
2018,08,08,10,04,23.80
2018,08,08,10,05,23.90
2018,08,08,10,06,24.00
2018,08,08,10,07,24.10
2018,08,08,10,08,24.10
2018,08,08,10,09,24.10
2018,08,08,10,10,24.10
2018,08,08,10,11,23.90
2018,08,08,10,12,23.80
2018,08,08,10,13,23.80
2018,08,08,10,14,23.80
2018,08,08,10,15,23.80
2018,08,08,10,16,23.80
2018,08,08,10,17,23.70
2018,08,08,10,18,23.70
2018,08,08,10,19,23.70
2018,08,08,10,20,23.70
2018,08,08,10,21,23.70
2018,08,08,10,22,23.60
2018,08,08,10,23,23.70
2018,08,08,10,24,23.70
2018,08,08,10,25,23.70
2018,08,08,10,26,23.70
2018,08,08,10,27,23.60
2018,08,08,10,28,23.60
2018,08,08,10,29,23.60
2018,08,08,10,30,23.60
2018,08,08,10,31,23.60
2018,08,08,10,32,23.60
2018,08,08,10,33,23.70
2018,08,08,10,34,23.70
2018,08,08,10,35,23.80
2018,08,08,10,36,23.80
2018,08,08,10,37,23.90
2018,08,08,10,38,23.90
2018,08,08,10,39,23.90
2018,08,08,10,40,23.90
2018,08,08,10,41,23.90
2018,08,08,10,42,23.90
2018,08,08,10,43,23.80
2018,08,08,10,44,23.80
2018,08,08,10,45,23.80
2018,08,08,10,46,23.80
2018,08,08,10,47,23.80
2018,08,08,10,48,23.70
2018,08,08,10,49,23.80
2018,08,08,10,50,23.80
2018,08,08,10,51,23.80
2018,08,08,10,52,23.80
2018,08,08,10,53,23.80
2018,08,08,10,54,23.80
2018,08,08,10,55,23.70
2018,08,08,10,56,23.70
2018,08,08,10,57,23.80
2018,08,08,10,58,23.80
2018,08,08,10,59,23.80
2018,08,08,11,00,23.70
2018,08,08,11,01,23.70
2018,08,08,11,02,23.80
2018,08,08,11,03,23.80
2018,08,08,11,04,23.80
2018,08,08,11,05,23.90
2018,08,08,11,06,23.90
2018,08,08,11,07,23.90
2018,08,08,11,08,23.90
2018,08,08,11,09,23.90
2018,08,08,11,10,23.90
2018,08,08,11,11,24.00
2018,08,08,11,12,24.10
2018,08,08,11,13,24.10
2018,08,08,11,14,24.10
2018,08,08,11,15,24.20
2018,08,08,11,16,24.20
2018,08,08,11,17,24.30
2018,08,08,11,18,24.40
2018,08,08,11,19,24.40
2018,08,08,11,20,24.50
2018,08,08,11,21,24.50
2018,08,08,11,22,24.50
2018,08,08,11,23,24.50
2018,08,08,11,24,24.50
2018,08,08,11,25,24.50
2018,08,08,11,26,24.60
2018,08,08,11,27,24.60
2018,08,08,11,28,24.70
2018,08,08,11,29,24.70
2018,08,08,11,30,24.60
2018,08,08,11,31,24.60
2018,08,08,11,32,24.70
2018,08,08,11,33,24.70
2018,08,08,11,34,24.70
2018,08,08,11,35,24.60
2018,08,08,11,36,24.50
2018,08,08,11,37,24.50
2018,08,08,11,38,24.40
2018,08,08,11,39,24.40
2018,08,08,11,40,24.40
2018,08,08,11,41,24.50
2018,08,08,11,42,24.50
2018,08,08,11,43,24.60
2018,08,08,11,44,24.60
2018,08,08,11,45,24.60
2018,08,08,11,46,24.70
2018,08,08,11,47,24.70
2018,08,08,11,48,24.80
2018,08,08,11,49,24.90
2018,08,08,11,50,24.90
2018,08,08,11,51,25.00
2018,08,08,11,52,25.00
2018,08,08,11,53,24.90
2018,08,08,11,54,24.80
2018,08,08,11,55,24.80
2018,08,08,11,56,24.80
2018,08,08,11,57,24.80
2018,08,08,11,58,24.90
2018,08,08,11,59,25.00
2018,08,08,12,00,25.10
2018,08,08,12,01,25.10
2018,08,08,12,02,25.10
2018,08,08,12,03,25.00
2018,08,08,12,04,24.90
2018,08,08,12,05,24.90
2018,08,08,12,06,25.00
2018,08,08,12,07,25.00
2018,08,08,12,08,25.10
2018,08,08,12,09,25.20
2018,08,08,12,10,25.30
2018,08,08,12,11,25.30
2018,08,08,12,12,25.30
2018,08,08,12,13,25.20
2018,08,08,12,14,25.20
2018,08,08,12,15,25.20
2018,08,08,12,16,25.20
2018,08,08,12,17,25.10
2018,08,08,12,18,25.10
2018,08,08,12,19,25.00
2018,08,08,12,20,25.10
2018,08,08,12,21,25.00
2018,08,08,12,22,25.00
2018,08,08,12,23,25.00
2018,08,08,12,24,25.10
2018,08,08,12,25,25.10
2018,08,08,12,26,25.20
2018,08,08,12,27,25.20
2018,08,08,12,28,25.20
2018,08,08,12,29,25.30
2018,08,08,12,30,25.30
2018,08,08,12,31,25.30
2018,08,08,12,32,25.30
2018,08,08,12,33,25.30
2018,08,08,12,34,25.40
2018,08,08,12,35,25.40
2018,08,08,12,36,25.40
2018,08,08,12,37,25.40
2018,08,08,12,38,25.50
2018,08,08,12,39,25.60
2018,08,08,12,40,25.60
2018,08,08,12,41,25.60
2018,08,08,12,42,25.50
2018,08,08,12,43,25.50
2018,08,08,12,44,25.40
2018,08,08,12,45,25.40
2018,08,08,12,46,25.30
2018,08,08,12,47,25.10
2018,08,08,12,48,25.00
2018,08,08,12,49,24.90
2018,08,08,12,50,24.90
2018,08,08,12,51,25.00
2018,08,08,12,52,25.00
2018,08,08,12,53,25.10
2018,08,08,12,54,25.20
2018,08,08,12,55,25.30
2018,08,08,12,56,25.30
2018,08,08,12,57,25.40
2018,08,08,12,58,25.40
2018,08,08,12,59,25.50
2018,08,08,13,00,25.60
2018,08,08,13,01,25.70
2018,08,08,13,02,25.80
2018,08,08,13,03,25.80
2018,08,08,13,04,25.80
2018,08,08,13,05,25.80
2018,08,08,13,06,25.80
2018,08,08,13,07,25.90
2018,08,08,13,08,25.90
2018,08,08,13,09,25.80
2018,08,08,13,10,25.80
2018,08,08,13,11,25.80
2018,08,08,13,12,25.70
2018,08,08,13,13,25.60
2018,08,08,13,14,25.60
2018,08,08,13,15,25.60
2018,08,08,13,16,25.70
2018,08,08,13,17,25.80
2018,08,08,13,18,25.90
2018,08,08,13,19,25.90
2018,08,08,13,20,26.00
2018,08,08,13,21,26.10
2018,08,08,13,22,26.20
2018,08,08,13,23,26.30
2018,08,08,13,24,26.40
2018,08,08,13,25,26.60
2018,08,08,13,26,26.60
2018,08,08,13,27,26.60
2018,08,08,13,28,26.60
2018,08,08,13,29,26.60
2018,08,08,13,30,26.60
2018,08,08,13,31,26.60
2018,08,08,13,32,26.60
2018,08,08,13,33,26.40
2018,08,08,13,34,26.40
2018,08,08,13,35,26.40
2018,08,08,13,36,26.40
2018,08,08,13,37,26.30
2018,08,08,13,38,26.30
2018,08,08,13,39,26.30
2018,08,08,13,40,26.30
2018,08,08,13,41,26.40
2018,08,08,13,42,26.40
2018,08,08,13,43,26.50
2018,08,08,13,44,26.60
2018,08,08,13,45,26.60
2018,08,08,13,46,26.80
2018,08,08,13,47,27.00
2018,08,08,13,48,27.10
2018,08,08,13,49,27.10
2018,08,08,13,50,27.20
2018,08,08,13,51,27.20
2018,08,08,13,52,27.30
2018,08,08,13,53,27.30
2018,08,08,13,54,27.30
2018,08,08,13,55,27.20
2018,08,08,13,56,27.10
2018,08,08,13,57,27.00
2018,08,08,13,58,26.90
2018,08,08,13,59,26.80
2018,08,08,14,00,26.80
2018,08,08,14,01,26.90
2018,08,08,14,02,27.00
2018,08,08,14,03,27.10
2018,08,08,14,04,27.10
2018,08,08,14,05,27.20
2018,08,08,14,06,27.30
2018,08,08,14,07,27.40
2018,08,08,14,08,27.50
2018,08,08,14,09,27.60
2018,08,08,14,10,27.70
2018,08,08,14,11,27.70
2018,08,08,14,12,27.70
2018,08,08,14,13,27.70
2018,08,08,14,14,27.70
2018,08,08,14,15,27.80
2018,08,08,14,16,27.80
2018,08,08,14,17,27.90
2018,08,08,14,18,28.00
2018,08,08,14,19,28.10
2018,08,08,14,20,28.20
2018,08,08,14,21,28.20
2018,08,08,14,22,28.30
2018,08,08,14,23,28.30
2018,08,08,14,24,28.40
2018,08,08,14,25,28.40
2018,08,08,14,26,28.50
2018,08,08,14,27,28.60
2018,08,08,14,28,28.60
2018,08,08,14,29,28.70
2018,08,08,14,30,28.70
2018,08,08,14,31,28.70
2018,08,08,14,32,28.60
2018,08,08,14,33,28.60
2018,08,08,14,34,28.60
2018,08,08,14,35,28.60
2018,08,08,14,36,28.60
2018,08,08,14,37,28.60
2018,08,08,14,38,28.60
2018,08,08,14,39,28.60
2018,08,08,14,40,28.60
2018,08,08,14,41,28.70
2018,08,08,14,42,28.80
2018,08,08,14,43,28.80
2018,08,08,14,44,28.80
2018,08,08,14,45,28.90
2018,08,08,14,46,28.90
2018,08,08,14,47,28.90
2018,08,08,14,48,29.00
2018,08,08,14,49,29.10
2018,08,08,14,50,29.10
2018,08,08,14,51,29.20
2018,08,08,14,52,29.30
2018,08,08,14,53,29.40
2018,08,08,14,54,29.30
2018,08,08,14,55,29.30
2018,08,08,14,56,29.30
2018,08,08,14,57,29.30
2018,08,08,14,58,29.40
2018,08,08,14,59,29.40
2018,08,08,15,00,29.40
2018,08,08,15,01,29.30
2018,08,08,15,02,29.30
2018,08,08,15,03,29.30
2018,08,08,15,04,29.30
2018,08,08,15,05,29.30
2018,08,08,15,06,29.30
2018,08,08,15,07,29.30
2018,08,08,15,08,29.30
2018,08,08,15,09,29.30
2018,08,08,15,10,29.30
2018,08,08,15,11,29.10
2018,08,08,15,12,29.00
2018,08,08,15,13,28.90
2018,08,08,15,14,28.70
2018,08,08,15,15,28.50
2018,08,08,15,16,28.40
2018,08,08,15,17,28.20
2018,08,08,15,18,28.10
2018,08,08,15,19,28.00
2018,08,08,15,20,27.90
2018,08,08,15,21,27.90
2018,08,08,15,22,27.80
2018,08,08,15,23,27.80
2018,08,08,15,24,27.80
2018,08,08,15,25,27.80
2018,08,08,15,26,27.70
2018,08,08,15,27,27.70
2018,08,08,15,28,27.80
2018,08,08,15,29,27.80
2018,08,08,15,30,27.80
2018,08,08,15,31,27.70
2018,08,08,15,32,27.70
2018,08,08,15,33,27.70
2018,08,08,15,34,27.70
2018,08,08,15,35,27.70
2018,08,08,15,36,27.70
2018,08,08,15,37,27.70
2018,08,08,15,38,27.70
2018,08,08,15,39,27.80
2018,08,08,15,40,27.90
2018,08,08,15,41,28.00
2018,08,08,15,42,28.00
2018,08,08,15,43,28.10
2018,08,08,15,44,28.10
2018,08,08,15,45,28.20
2018,08,08,15,46,28.30
2018,08,08,15,47,28.30
2018,08,08,15,48,28.40
2018,08,08,15,49,28.40
2018,08,08,15,50,28.40
2018,08,08,15,51,28.60
2018,08,08,15,52,28.60
2018,08,08,15,53,28.70
2018,08,08,15,54,28.70
2018,08,08,15,55,28.80
2018,08,08,15,56,28.80
2018,08,08,15,57,28.90
2018,08,08,15,58,28.90
2018,08,08,15,59,29.00
2018,08,08,16,00,29.10
2018,08,08,16,01,29.20
2018,08,08,16,02,29.30
2018,08,08,16,03,29.30
2018,08,08,16,04,29.30
2018,08,08,16,05,29.30
2018,08,08,16,06,29.30
2018,08,08,16,07,29.20
2018,08,08,16,08,29.20
2018,08,08,16,09,29.30
2018,08,08,16,10,29.30
2018,08,08,16,11,29.30
2018,08,08,16,12,29.40
2018,08,08,16,13,29.40
2018,08,08,16,14,29.50
2018,08,08,16,15,29.50
2018,08,08,16,16,29.50
2018,08,08,16,17,29.50
2018,08,08,16,18,29.50
2018,08,08,16,19,29.60
2018,08,08,16,20,29.60
2018,08,08,16,21,29.60
2018,08,08,16,22,29.50
2018,08,08,16,23,29.50
2018,08,08,16,24,29.50
2018,08,08,16,25,29.50
2018,08,08,16,26,29.50
2018,08,08,16,27,29.50
2018,08,08,16,28,29.50
2018,08,08,16,29,29.40
2018,08,08,16,30,29.40
2018,08,08,16,31,29.40
2018,08,08,16,32,29.40
2018,08,08,16,33,29.40
2018,08,08,16,34,29.40
2018,08,08,16,35,29.40
2018,08,08,16,36,29.40
2018,08,08,16,37,29.30
2018,08,08,16,38,29.30
2018,08,08,16,39,29.30
2018,08,08,16,40,29.30
2018,08,08,16,41,29.30
2018,08,08,16,42,29.40
2018,08,08,16,43,29.40
2018,08,08,16,44,29.40
2018,08,08,16,45,29.50
2018,08,08,16,46,29.50
2018,08,08,16,47,29.50
2018,08,08,16,48,29.60
2018,08,08,16,49,29.60
2018,08,08,16,50,29.70
2018,08,08,16,51,29.70
2018,08,08,16,52,29.70
2018,08,08,16,53,29.80
2018,08,08,16,54,29.80
2018,08,08,16,55,29.80
2018,08,08,16,56,29.80
2018,08,08,16,57,29.80
2018,08,08,16,58,29.70
2018,08,08,16,59,29.70
2018,08,08,17,00,29.60
2018,08,08,17,01,29.60
2018,08,08,17,02,29.60
2018,08,08,17,03,29.50
2018,08,08,17,04,29.50
2018,08,08,17,05,29.50
2018,08,08,17,06,29.50
2018,08,08,17,07,29.50
2018,08,08,17,08,29.40
2018,08,08,17,09,29.40
2018,08,08,17,10,29.40
2018,08,08,17,11,29.40
2018,08,08,17,12,29.40
2018,08,08,17,13,29.40
2018,08,08,17,14,29.50
2018,08,08,17,15,29.60
2018,08,08,17,16,29.60
2018,08,08,17,17,29.70
2018,08,08,17,18,29.70
2018,08,08,17,19,29.70